[[{"header":{"parameterUnit":"m.s-1","parameterCategory":2,"la1":30.2991,"la2":30.254,"lo1":-89.0895,"lo2":-89.0444,"dy":0.0017,"dx":0.0017,"nx":28,"ny":28,"refTime":"2024-07-04T03:00:00:Z","depth":"0","parameterNumber":2,"parameterNumberName":"U-component_of_CURRENTS"},"data":[0,0,0,0,0,0,0,0,0,0,0,0,0,0,0,0,0,0,0,0,0,0,0,0,0,0,0,0,0,0,0,0,0,0,0,0,0,0,0,0,0,0,0,0,0,0,0,0,0,0,0,0,0,0,0,0,0,0,0.3296,0.3296,0,0.3315,0.3315,0.3315,0.329,0.3289,0.3289,0.3288,0.333,0.3331,0.3333,0,0,0,0,0,0,0,0,0,0,0,0,0,0.3301,0.33,0.3296,0.3296,0.3297,0.3315,0.3315,0.3315,0.329,0.3289,0.3289,0.3288,0.3329,0.3331,0.3333,0,0,0,0,0,0,0,0,0,0,0,0,0,0.3304,0.33,0.3296,0.3289,0.3289,0.3315,0.3315,0.3315,0.329,0.3289,0.3288,0.3288,0.3328,0.3331,0.3333,0.3368,0,0,0.3341,0.3342,0,0,0,0,0,0,0,0,0.3304,0.3304,0.3289,0.3289,0.3289,0.3301,0.3332,0.3335,0.3291,0.3287,0.3288,0.3287,0.3325,0.3328,0.3329,0.337,0.3372,0.3341,0.3343,0.3344,0.3345,0,0,0,0,0,0,0,0.3304,0.3303,0.33,0.329,0.329,0.3306,0.3305,0.3332,0.3309,0.3287,0.3286,0.3293,0.3324,0.3326,0.333,0.3372,0.3341,0.3343,0.3345,0.3346,0.3428,0.3428,0,0,0,0,0,0,0.3305,0.3303,0.33,0.3301,0.3298,0.3307,0.3305,0.3296,0.3308,0.331,0.3294,0.3292,0.3323,0.3327,0.3331,0.3384,0.3344,0.3346,0.3348,0.3427,0.3428,0.3429,0,0,0,0,0,0,0.3304,0.3304,0.3299,0.3306,0.3306,0.3307,0.3298,0.3297,0.3299,0.3314,0.3315,0.3296,0.3322,0.3328,0.3354,0.3385,0.3347,0.335,0.3426,0.3427,0.3428,0.3482,0,0,0,0,0,0,0.3304,0.3303,0.3305,0.3305,0.3306,0.3323,0.3299,0.3298,0.3306,0.3303,0.3317,0.3319,0.3322,0.335,0.3356,0.3388,0.3352,0.3425,0.3427,0.3428,0.348,0.3485,0.349,0,0,0,0,0,0.3304,0.3314,0.3304,0.3305,0.3305,0.3324,0.3327,0.3323,0.3307,0.3318,0.3318,0.3319,0.3362,0.3353,0.336,0.3393,0.3425,0.3426,0.3428,0.3477,0.3484,0.3489,0,0,0,0,0,0,0.3325,0.3312,0.3302,0.3308,0.3319,0.3321,0.3338,0.3328,0.3336,0.3334,0.3333,0.3337,0.3381,0.3371,0.3361,0.3416,0.3392,0.3395,0.3427,0.3434,0.3438,0.351,0.3354,0,0,0,0,0,0.3328,0.3327,0.3324,0.3334,0.3338,0.3336,0.3345,0.3342,0.3348,0.3349,0.3357,0.3365,0.3394,0.3398,0.3427,0.3451,0.3508,0.3473,0.3478,0.3483,0.3544,0.3664,0.3688,0.3433,0.3433,0.3433,0,0,0.3342,0.3336,0.3336,0.3338,0.3344,0.3359,0.3339,0.3358,0.3374,0.3356,0.3384,0.3399,0.3409,0.3447,0.3462,0.3437,0.3571,0.3484,0.3488,0.3549,0.3669,0.3694,0.3717,0.3434,0.3434,0.3434,0,0,0.3369,0.336,0.3366,0.3374,0.3386,0.3388,0.3393,0.3399,0.3405,0.3431,0.3431,0.3474,0.3482,0.3517,0.3529,0.3579,0.361,0.3558,0.3629,0.3743,0.3767,0.3789,0.3845,0.3871,0.3541,0.3541,0.3541,0,0.3388,0.3383,0.3378,0.339,0.3405,0.3399,0.342,0.3431,0.3446,0.3482,0.3446,0.3538,0.3534,0.3621,0.3625,0.3601,0.3648,0.3604,0.3756,0.3779,0.3801,0.3853,0.3882,0.3544,0.3544,0.3543,0.3543,0,0.3412,0.3414,0.3426,0.343,0.3452,0.3471,0.3486,0.3517,0.352,0.3543,0.3636,0.3648,0.3713,0.3696,0.3673,0.3812,0.3787,0.3766,0.3752,0.3831,0.3878,0.3908,0.3548,0.3547,0.3546,0.3545,0,0,0.3433,0.3438,0.344,0.345,0.3472,0.3493,0.3545,0.3604,0.3674,0.3691,0.3799,0.3832,0.3866,0.3885,0.3873,0.3951,0.4101,0.3917,0.3922,0.3992,0.4327,0.417,0.4186,0.4108,0.4114,0.4119,0.4282,0,0.3451,0.3468,0.3475,0.3511,0.3525,0.3559,0.3617,0.368,0.3739,0.3844,0.3896,0.3989,0.3923,0.3971,0.4045,0.4115,0.4189,0.4058,0.4226,0.4232,0.4101,0.422,0.3959,0.4073,0.4311,0.4316,0.4319,0,0.3462,0.3474,0.35,0.3556,0.3571,0.3602,0.3727,0.3782,0.3931,0.3991,0.411,0.416,0.4293,0.4219,0.4405,0.4324,0.4348,0.4377,0.4384,0.426,0.4132,0.4041,0.4117,0.4004,0.4364,0.4361,0.4358,0,0.346,0.3492,0.3511,0.3524,0.359,0.3639,0.3693,0.3833,0.3932,0.4113,0.4224,0.4366,0.4462,0.4554,0.4579,0.4526,0.4771,0.4698,0.4582,0.4568,0.4397,0.4357,0.4411,0.4862,0.4862,0.4861,0.4861,0,0.3461,0.3481,0.351,0.3521,0.3603,0.3647,0.3786,0.3872,0.4051,0.4187,0.4304,0.4443,0.4561,0.468,0.4686,0.4723,0.4858,0.4656,0.4633,0.4394,0.4354,0.4285,0.4235,0.4867,0.4866,0.4865,0.4864,0,0.3456,0.346,0.3502,0.3567,0.3597,0.3663,0.3827,0.3934,0.4097,0.4291,0.4361,0.4564,0.4701,0.4775,0.4925,0.4846,0.4751,0.4867,0.4542,0.4478,0.4216,0.4175,0.4128,0.402,0.4794,0.4791,0.4789,0,0.3449,0.3461,0.3533,0.3569,0.3598,0.3705,0.3786,0.3946,0.4057,0.4339,0.4418,0.463,0.4719,0.4868,0.4787,0.4789,0.4679,0.4544,0.4399,0.422,0.4162,0.4023,0.3928,0.4178,0.4171,0.4166,0.4161,0,0.3464,0.3486,0.3523,0.3593,0.3658,0.3747,0.3855,0.3947,0.413,0.4286,0.4454,0.4559,0.4655,0.4534,0.4519,0.448,0.4293,0.4424,0.4361,0.3809,0.355,0.3423,0.4021,0.4111,0.4116,0.412,0.4122,0.4124,0.3484,0.3518,0.3558,0.3614,0.3684,0.373,0.3751,0.3869,0.4005,0.4115,0.4305,0.4319,0.429,0.4217,0.4155,0.3871,0.3941,0.3718,0.3724,0.3631,0.3409,0.3866,0.3842,0.3846,0.3849,0.3851,0.3853,0,0.3495,0.3518,0.3573,0.3612,0.3627,0.3678,0.3745,0.3717,0.3765,0.3872,0.3945,0.3836,0.3687,0.3622,0.3379,0.3204,0.3064,0.3121,0.2896,0.2871,0.3389,0.3239,0.2933,0.2933,0.2933,0.2934,0.2934,0.2934,0.3507,0.3527,0.3531,0.3519,0.3526,0.3471,0.3452,0.3426,0.3441,0.3345,0.3234,0.3236,0.3261,0.3095,0.2841,0.2756,0.2584,0.2395,0.2506,0.2878,0.2935,0.2988,0.2838,0.2454,0.2453,0.182,0.1815,0.1812]},{"header":{"parameterUnit":"m.s-1","parameterCategory":2,"la1":30.2991,"la2":30.254,"lo1":-89.0895,"lo2":-89.0444,"dy":0.0017,"dx":0.0017,"nx":28,"ny":28,"refTime":"2024-07-04T03:00:00:Z","depth":"0","parameterNumber":3,"parameterNumberName":"V-component_of_CURRENTS"},"data":[0,0,0,0,0,0,0,0,0,0,0,0,0,0,0,0,0,0,0,0,0,0,0,0,0,0,0,0,0,0,0,0,0,0,0,0,0,0,0,0,0,0,0,0,0,0,0,0,0,0,0,0,0,0,0,0,0,0,0.0337,0.0336,0,0.0311,0.0311,0.031,0.0285,0.0285,0.0285,0.0284,0.027,0.027,0.027,0,0,0,0,0,0,0,0,0,0,0,0,0,0.0338,0.0338,0.0337,0.0336,0.0336,0.0311,0.031,0.031,0.0285,0.0285,0.0284,0.0284,0.027,0.027,0.027,0,0,0,0,0,0,0,0,0,0,0,0,0,0.0327,0.0338,0.0337,0.0321,0.0319,0.0311,0.031,0.031,0.0285,0.0285,0.0284,0.0284,0.027,0.027,0.027,0.0277,0,0,0.0269,0.0269,0,0,0,0,0,0,0,0,0.0328,0.0327,0.0324,0.0322,0.032,0.0301,0.0306,0.03,0.0285,0.0298,0.0284,0.0284,0.0282,0.0281,0.0276,0.0277,0.0276,0.0269,0.0269,0.0269,0.0269,0,0,0,0,0,0,0,0.0329,0.0328,0.0326,0.0323,0.0321,0.0306,0.0304,0.0304,0.0293,0.0297,0.0295,0.0293,0.0281,0.0276,0.0276,0.0276,0.0269,0.0269,0.0269,0.0269,0.0292,0.0293,0,0,0,0,0,0,0.0335,0.0329,0.0327,0.0325,0.0323,0.0307,0.0304,0.0307,0.0292,0.029,0.0293,0.0292,0.0277,0.0276,0.0275,0.0312,0.0269,0.0269,0.0269,0.0292,0.0292,0.0293,0,0,0,0,0,0,0.0335,0.0335,0.0328,0.0326,0.0324,0.0307,0.031,0.0307,0.0305,0.029,0.0287,0.0294,0.0277,0.0275,0.0284,0.031,0.0269,0.0269,0.0291,0.0292,0.0293,0.0367,0,0,0,0,0,0,0.0335,0.0335,0.0341,0.0327,0.0325,0.0333,0.0311,0.0307,0.0304,0.0302,0.029,0.0288,0.0276,0.0284,0.0284,0.0309,0.0269,0.029,0.0291,0.0293,0.0363,0.037,0.0376,0,0,0,0,0,0.0335,0.0349,0.0341,0.0341,0.0333,0.0334,0.0332,0.0317,0.0305,0.0311,0.0303,0.0288,0.0292,0.0285,0.0284,0.031,0.0289,0.0291,0.0292,0.0361,0.0369,0.0376,0,0,0,0,0,0,0.0349,0.0347,0.0339,0.035,0.0345,0.033,0.0335,0.0322,0.0319,0.0319,0.03,0.0298,0.0314,0.0299,0.0291,0.0318,0.0288,0.0289,0.034,0.0347,0.0354,0.0391,0.0268,0,0,0,0,0,0.0356,0.0369,0.0358,0.0368,0.0368,0.0352,0.035,0.0341,0.0335,0.0332,0.0324,0.0317,0.032,0.0323,0.0319,0.0338,0.0324,0.0351,0.0358,0.0363,0.0393,0.0403,0.0414,0.0299,0.0299,0.0299,0,0,0.0363,0.0365,0.037,0.0372,0.0367,0.0385,0.035,0.0355,0.0375,0.0333,0.0358,0.0339,0.0328,0.0348,0.0354,0.034,0.038,0.0366,0.0371,0.0397,0.0406,0.0418,0.0428,0.03,0.0299,0.0299,0,0,0.0394,0.0388,0.0411,0.0414,0.0415,0.0409,0.0414,0.0404,0.0406,0.0422,0.0399,0.0402,0.0399,0.0403,0.0403,0.0444,0.0411,0.0431,0.0501,0.051,0.0521,0.053,0.0491,0.0496,0.0438,0.0438,0.0438,0,0.0403,0.0433,0.0417,0.0442,0.0458,0.0426,0.0461,0.0459,0.0454,0.0475,0.0442,0.046,0.0434,0.0481,0.0485,0.0462,0.0444,0.0474,0.0521,0.053,0.0538,0.0496,0.0501,0.0441,0.0441,0.0441,0.044,0,0.0454,0.0478,0.0493,0.0521,0.0534,0.0556,0.0555,0.057,0.0562,0.0565,0.0601,0.0568,0.0588,0.0566,0.0535,0.0584,0.0541,0.0525,0.0507,0.0554,0.0506,0.0509,0.0447,0.0445,0.0444,0.0443,0,0,0.048,0.0523,0.053,0.057,0.0582,0.0607,0.0642,0.0681,0.0735,0.071,0.0782,0.0752,0.0735,0.0734,0.0695,0.0691,0.0697,0.0634,0.0633,0.0604,0.0686,0.0642,0.0641,0.0691,0.0693,0.0694,0.0616,0,0.0529,0.0605,0.061,0.0689,0.0732,0.073,0.0778,0.0808,0.0824,0.0881,0.0853,0.0896,0.0799,0.0819,0.0798,0.0748,0.0716,0.0718,0.0638,0.0635,0.0599,0.0649,0.065,0.0581,0.0619,0.0619,0.062,0,0.0581,0.0631,0.0718,0.0804,0.0824,0.0864,0.0959,0.1,0.1053,0.1072,0.1097,0.1076,0.1081,0.0987,0.0915,0.0921,0.0808,0.074,0.0736,0.0684,0.0601,0.0546,0.0586,0.0469,0.0625,0.0624,0.0624,0,0.0631,0.0712,0.0795,0.0819,0.09,0.095,0.0996,0.1061,0.1138,0.1205,0.1274,0.1252,0.1275,0.1159,0.1002,0.0968,0.0908,0.0844,0.0685,0.0678,0.0661,0.0651,0.0595,0.0777,0.0777,0.0777,0.0778,0,0.0689,0.0758,0.0829,0.0876,0.0998,0.1023,0.1159,0.1201,0.13,0.1429,0.1383,0.148,0.1324,0.1265,0.1079,0.091,0.0963,0.0718,0.0677,0.068,0.0673,0.0554,0.0464,0.0774,0.0775,0.0775,0.0776,0,0.0738,0.0777,0.0885,0.0984,0.1025,0.1115,0.1264,0.1369,0.1441,0.1611,0.1648,0.167,0.1603,0.1407,0.1231,0.1031,0.0773,0.0764,0.0753,0.0713,0.045,0.0362,0.0247,0.0194,0.0589,0.0587,0.0586,0,0.0775,0.0832,0.0965,0.1042,0.1092,0.1226,0.133,0.1432,0.1556,0.1742,0.1839,0.1833,0.1862,0.1575,0.1231,0.0906,0.0748,0.0667,0.0603,0.0461,0.0333,0.0274,0.0234,0.0581,0.058,0.0579,0.0578,0,0.085,0.0892,0.0981,0.1131,0.125,0.14,0.1551,0.1673,0.1824,0.1987,0.2171,0.2214,0.1947,0.1654,0.1196,0.096,0.059,0.0638,0.0521,0.0359,0.0266,0.0187,0.0565,0.0571,0.0572,0.0572,0.0573,0.0573,0.0908,0.0983,0.1092,0.1238,0.1373,0.155,0.1687,0.1879,0.2108,0.2359,0.2385,0.2468,0.2021,0.1421,0.1109,0.0532,0.0517,0.0345,0.0254,0.0211,0.0163,0.0505,0.0453,0.0453,0.0453,0.0453,0.0453,0,0.0978,0.1062,0.1195,0.1368,0.1512,0.1578,0.1822,0.1987,0.2272,0.2483,0.2647,0.2434,0.191,0.1353,0.0556,0.0207,0.0102,0.0031,-0.0038,-0.0057,0.0279,0.0285,0.0162,0.0162,0.0163,0.0163,0.0163,0.0163,0.1021,0.1143,0.1209,0.1444,0.1569,0.1779,0.192,0.2192,0.2381,0.2629,0.2651,0.2626,0.2161,0.0873,0.0051,-0.0119,-0.0299,-0.0371,-0.0457,-0.0222,-0.0198,-0.0176,-0.0188,-0.0408,-0.0408,-0.0726,-0.073,-0.0732]}],[{"header":{"parameterUnit":"m.s-1","parameterCategory":2,"la1":30.2991,"la2":30.254,"lo1":-89.0895,"lo2":-89.0444,"dy":0.0017,"dx":0.0017,"nx":28,"ny":28,"refTime":"2024-07-04T03:00:00:Z","depth":"2","parameterNumber":2,"parameterNumberName":"U-component_of_CURRENTS"},"data":[0,0,0,0,0,0,0,0,0,0,0,0,0,0,0,0,0,0,0,0,0,0,0,0,0,0,0,0,0,0,0,0,0,0,0,0,0,0,0,0,0,0,0,0,0,0,0,0,0,0,0,0,0,0,0,0,0,0,0.2829,0.2829,0,0.2848,0.2848,0.2848,0.284,0.284,0.284,0.2839,0.2862,0.2863,0.2864,0,0,0,0,0,0,0,0,0,0,0,0,0,0.2807,0.2807,0.2828,0.2829,0.283,0.2848,0.2848,0.2848,0.284,0.284,0.2839,0.2839,0.2862,0.2863,0.2864,0,0,0,0,0,0,0,0,0,0,0,0,0,0.2817,0.2807,0.2828,0.283,0.2831,0.2848,0.2848,0.2848,0.284,0.284,0.2839,0.2839,0.2862,0.2863,0.2864,0.2876,0,0,0.2867,0.2868,0,0,0,0,0,0,0,0,0.2816,0.2817,0.2829,0.283,0.2831,0.2844,0.2849,0.2858,0.284,0.2833,0.2839,0.2839,0.2859,0.286,0.286,0.2877,0.2878,0.2867,0.2868,0.2869,0.2869,0,0,0,0,0,0,0,0.2816,0.2817,0.2833,0.283,0.2831,0.2838,0.2838,0.285,0.2845,0.2834,0.2834,0.2841,0.2859,0.2858,0.286,0.2878,0.2867,0.2868,0.2869,0.287,0.2946,0.2948,0,0,0,0,0,0,0.2819,0.2816,0.2832,0.2834,0.2826,0.2839,0.2839,0.2837,0.2844,0.2846,0.2841,0.2841,0.2857,0.2859,0.2861,0.2916,0.2869,0.287,0.287,0.2945,0.2947,0.2948,0,0,0,0,0,0,0.2818,0.282,0.2832,0.2828,0.2831,0.2839,0.2837,0.2838,0.2848,0.2851,0.2852,0.2852,0.2857,0.2859,0.2883,0.2915,0.287,0.2871,0.2943,0.2945,0.2947,0.3,0,0,0,0,0,0,0.2817,0.2819,0.2825,0.2828,0.2831,0.2853,0.2838,0.2839,0.2854,0.2853,0.2861,0.2862,0.2857,0.2881,0.2884,0.2916,0.2872,0.2942,0.2944,0.2947,0.2997,0.3004,0.301,0,0,0,0,0,0.2816,0.2825,0.2824,0.2827,0.2836,0.2854,0.2856,0.2859,0.2855,0.2865,0.287,0.2862,0.29,0.2883,0.2886,0.2919,0.294,0.2944,0.2946,0.2994,0.3002,0.301,0,0,0,0,0,0,0.2821,0.2826,0.2825,0.2835,0.285,0.2854,0.2869,0.2868,0.2879,0.2883,0.2876,0.2878,0.292,0.2908,0.289,0.2949,0.2921,0.2924,0.2956,0.2964,0.297,0.3004,0.2873,0,0,0,0,0,0.2825,0.2832,0.284,0.2852,0.286,0.2866,0.2876,0.288,0.2889,0.2893,0.29,0.291,0.2934,0.2938,0.2959,0.2981,0.3007,0.3005,0.3012,0.3017,0.3047,0.3132,0.315,0.2958,0.2958,0.2958,0,0,0.2831,0.2836,0.284,0.2854,0.2864,0.2882,0.2871,0.2894,0.2914,0.2896,0.2928,0.2943,0.2949,0.2984,0.3,0.2976,0.3077,0.3021,0.3026,0.3054,0.3138,0.3157,0.3174,0.296,0.296,0.2959,0,0,0.2847,0.2852,0.2863,0.2877,0.29,0.2907,0.2917,0.2932,0.2945,0.2975,0.2977,0.3014,0.3028,0.305,0.3058,0.3113,0.3121,0.3112,0.316,0.3241,0.3258,0.3274,0.3296,0.3313,0.31,0.31,0.31,0,0.2857,0.2866,0.2872,0.289,0.2909,0.2919,0.2942,0.2959,0.2982,0.3008,0.2994,0.3067,0.3067,0.3128,0.3145,0.3133,0.3162,0.3126,0.3252,0.3268,0.3284,0.3303,0.3321,0.3103,0.3103,0.3103,0.3102,0,0.2876,0.2891,0.2904,0.2926,0.2949,0.2974,0.2999,0.303,0.3047,0.3066,0.3141,0.3155,0.3202,0.3201,0.3187,0.3291,0.3269,0.3263,0.3235,0.3307,0.3321,0.3339,0.3107,0.3106,0.3105,0.3105,0,0,0.2877,0.2909,0.2915,0.2928,0.2972,0.2987,0.3042,0.3091,0.3137,0.3172,0.3249,0.3285,0.3311,0.3325,0.3324,0.3381,0.3489,0.3367,0.337,0.3393,0.3641,0.3529,0.3537,0.3513,0.3517,0.3521,0.3595,0,0.2892,0.2922,0.2943,0.298,0.2998,0.3039,0.3084,0.3136,0.3189,0.3267,0.3316,0.3391,0.335,0.3394,0.3447,0.3497,0.3547,0.3468,0.3566,0.3568,0.3465,0.3559,0.3246,0.328,0.3613,0.3616,0.3618,0,0.29,0.2919,0.2954,0.3001,0.3015,0.3045,0.3134,0.3181,0.3295,0.3345,0.3439,0.3493,0.3594,0.3559,0.3676,0.3631,0.3652,0.3672,0.3675,0.3576,0.3493,0.327,0.3301,0.3648,0.3646,0.3644,0.3642,0,0.2879,0.2926,0.2952,0.2968,0.3025,0.3063,0.3107,0.3207,0.3279,0.3426,0.3513,0.3617,0.3701,0.3766,0.3799,0.3765,0.3924,0.3875,0.3785,0.3774,0.3531,0.3493,0.3983,0.3983,0.3983,0.3983,0.3983,0,0.2877,0.2892,0.2942,0.2951,0.2995,0.305,0.3137,0.3197,0.3344,0.3438,0.3559,0.3661,0.377,0.3864,0.3868,0.3881,0.3979,0.3828,0.3812,0.3533,0.3496,0.3837,0.3819,0.3985,0.3985,0.3984,0.3984,0,0.2844,0.2871,0.2896,0.2959,0.2981,0.3015,0.3147,0.3214,0.3356,0.3501,0.357,0.3743,0.3846,0.3919,0.4024,0.3958,0.3989,0.3965,0.3602,0.3543,0.3758,0.3742,0.3878,0.3875,0.3872,0.3871,0.3869,0,0.2816,0.283,0.2893,0.2912,0.2939,0.3013,0.3064,0.32,0.3286,0.3523,0.3582,0.3768,0.3828,0.393,0.3883,0.3876,0.3966,0.3571,0.3453,0.3789,0.376,0.3748,0.3735,0.313,0.3123,0.3116,0.3111,0,0.2767,0.2801,0.2826,0.2878,0.2917,0.2972,0.306,0.3112,0.3275,0.3403,0.3527,0.361,0.3715,0.3569,0.3587,0.3533,0.3545,0.3444,0.3937,0.3205,0.3091,0.306,0.3071,0.3056,0.3062,0.3066,0.3069,0.3071,0.273,0.2743,0.2791,0.2823,0.2865,0.2878,0.2873,0.296,0.3038,0.3135,0.3321,0.3331,0.336,0.3221,0.3107,0.3017,0.3261,0.3089,0.3106,0.313,0.303,0.2919,0.283,0.2834,0.2837,0.284,0.2843,0,0.2674,0.2708,0.2734,0.2735,0.272,0.28,0.2828,0.2784,0.2763,0.2884,0.2956,0.2739,0.265,0.2688,0.246,0.2432,0.2382,0.2324,0.2235,0.2293,0.2343,0.2201,0.1782,0.1778,0.1775,0.1772,0,0,0.2648,0.2634,0.2636,0.2566,0.2585,0.2511,0.2488,0.2433,0.2456,0.2384,0.2373,0.2581,0.2646,0.2212,0.2126,0.1919,0.2092,0.1833,0.2691,0.2648,0.2695,0.2797,0.2645,0,0,0,0,0]},{"header":{"parameterUnit":"m.s-1","parameterCategory":2,"la1":30.2991,"la2":30.254,"lo1":-89.0895,"lo2":-89.0444,"dy":0.0017,"dx":0.0017,"nx":28,"ny":28,"refTime":"2024-07-04T03:00:00:Z","depth":"2","parameterNumber":3,"parameterNumberName":"V-component_of_CURRENTS"},"data":[0,0,0,0,0,0,0,0,0,0,0,0,0,0,0,0,0,0,0,0,0,0,0,0,0,0,0,0,0,0,0,0,0,0,0,0,0,0,0,0,0,0,0,0,0,0,0,0,0,0,0,0,0,0,0,0,0,0,0.0206,0.0206,0,0.0186,0.0186,0.0186,0.0165,0.0165,0.0165,0.0164,0.0149,0.0149,0.0149,0,0,0,0,0,0,0,0,0,0,0,0,0,0.0197,0.0198,0.0206,0.0206,0.0206,0.0186,0.0186,0.0186,0.0165,0.0165,0.0165,0.0164,0.0149,0.0149,0.0149,0,0,0,0,0,0,0,0,0,0,0,0,0,0.0191,0.0198,0.0206,0.0194,0.0192,0.0186,0.0186,0.0185,0.0165,0.0165,0.0165,0.0164,0.0149,0.0149,0.0149,0.0154,0,0,0.0148,0.0148,0,0,0,0,0,0,0,0,0.0192,0.0192,0.0196,0.0195,0.0193,0.0178,0.0177,0.0175,0.0165,0.0175,0.0164,0.0164,0.016,0.0159,0.0155,0.0153,0.0153,0.0148,0.0148,0.0148,0.0147,0,0,0,0,0,0,0,0.0192,0.0192,0.0198,0.0196,0.0194,0.0179,0.0178,0.0176,0.0169,0.0174,0.0173,0.0171,0.0159,0.0155,0.0154,0.0152,0.0148,0.0148,0.0147,0.0147,0.0159,0.0159,0,0,0,0,0,0,0.0198,0.0193,0.0199,0.0197,0.0192,0.0179,0.0178,0.0183,0.0169,0.0167,0.0172,0.017,0.0156,0.0155,0.0154,0.0179,0.0148,0.0147,0.0147,0.0158,0.0159,0.0159,0,0,0,0,0,0,0.0198,0.0199,0.0199,0.0194,0.0194,0.018,0.0185,0.0183,0.0182,0.0167,0.0165,0.0174,0.0156,0.0154,0.0161,0.0178,0.0147,0.0147,0.0158,0.0158,0.0159,0.0217,0,0,0,0,0,0,0.0198,0.0199,0.0205,0.0195,0.0194,0.0204,0.0186,0.0183,0.0181,0.018,0.0169,0.0166,0.0155,0.0161,0.016,0.0177,0.0147,0.0157,0.0158,0.0159,0.0215,0.022,0.0224,0,0,0,0,0,0.0197,0.021,0.0205,0.0206,0.0203,0.0205,0.0203,0.0191,0.0182,0.0188,0.018,0.0167,0.0166,0.0162,0.016,0.0177,0.0157,0.0158,0.0159,0.0213,0.0219,0.0224,0,0,0,0,0,0,0.0205,0.0209,0.0204,0.0215,0.0213,0.0202,0.0206,0.0196,0.0194,0.0194,0.0177,0.0175,0.0184,0.0172,0.0168,0.0181,0.0158,0.0159,0.0199,0.0205,0.0209,0.0226,0.0146,0,0,0,0,0,0.0211,0.0225,0.0219,0.023,0.0231,0.0219,0.0218,0.0212,0.0207,0.0205,0.0198,0.019,0.0187,0.0189,0.0183,0.0196,0.0173,0.0204,0.0208,0.0213,0.0224,0.021,0.0215,0.0163,0.0163,0.0163,0,0,0.0216,0.0221,0.0227,0.0233,0.023,0.0244,0.0218,0.0223,0.0238,0.0205,0.0224,0.0207,0.0193,0.0205,0.0208,0.0199,0.0211,0.0214,0.0218,0.0228,0.0212,0.0217,0.0222,0.0164,0.0163,0.0163,0,0,0.0239,0.0239,0.026,0.0264,0.0267,0.0264,0.0268,0.0263,0.0264,0.0276,0.0255,0.0251,0.0249,0.0244,0.0241,0.0268,0.0234,0.0262,0.0306,0.0292,0.0296,0.03,0.0259,0.0259,0.0268,0.0268,0.0268,0,0.0245,0.0273,0.0264,0.0286,0.0299,0.0277,0.0305,0.0303,0.0301,0.0311,0.0291,0.0289,0.0271,0.029,0.0294,0.0281,0.0257,0.0287,0.0299,0.0302,0.0305,0.0262,0.0261,0.0271,0.027,0.027,0.027,0,0.0285,0.0308,0.0321,0.0347,0.0357,0.0377,0.0377,0.0387,0.0382,0.0379,0.0392,0.0364,0.0367,0.0353,0.0332,0.0347,0.0315,0.0304,0.0287,0.0314,0.0267,0.0264,0.0275,0.0274,0.0273,0.0272,0,0,0.0303,0.0343,0.035,0.0381,0.0395,0.0415,0.044,0.0465,0.0495,0.0474,0.0513,0.0483,0.0463,0.0457,0.0426,0.0407,0.039,0.0368,0.0365,0.0332,0.0339,0.031,0.0304,0.0382,0.0382,0.0383,0.0292,0,0.0341,0.0405,0.0411,0.0473,0.0508,0.0506,0.054,0.0556,0.0561,0.059,0.0555,0.0576,0.0505,0.0516,0.0482,0.0427,0.039,0.0414,0.0315,0.0311,0.0287,0.0303,0.0325,0.0247,0.0289,0.0289,0.0288,0,0.0382,0.0425,0.0494,0.0559,0.0574,0.0604,0.0665,0.0694,0.0714,0.072,0.0717,0.0693,0.0671,0.061,0.051,0.0529,0.0438,0.0376,0.0371,0.0327,0.0279,0.023,0.024,0.0284,0.0284,0.0285,0.0285,0,0.0419,0.0486,0.0551,0.0571,0.0632,0.0667,0.0702,0.0734,0.0789,0.0813,0.0855,0.0801,0.0805,0.069,0.0554,0.0538,0.0433,0.0398,0.0275,0.027,0.0262,0.0256,0.0318,0.0318,0.0318,0.0319,0.0319,0,0.0465,0.0517,0.0576,0.0613,0.0703,0.0722,0.082,0.0839,0.0903,0.0992,0.0931,0.0983,0.0828,0.0752,0.0597,0.0433,0.0462,0.0286,0.0254,0.0279,0.0277,0.0293,0.0292,0.0315,0.0316,0.0317,0.0317,0,0.0496,0.0532,0.0614,0.0691,0.0723,0.0789,0.091,0.0986,0.1023,0.114,0.1163,0.113,0.1031,0.0848,0.0668,0.0508,0.0346,0.0273,0.0298,0.0271,0.0171,0.0174,0.0128,0.0127,0.0125,0.0124,0.0123,0,0.0519,0.0563,0.0673,0.0739,0.0779,0.0885,0.0971,0.1041,0.1137,0.124,0.1308,0.1251,0.1228,0.0932,0.0656,0.0378,0.0336,0.0194,0.0168,0.0183,0.0156,0.0161,0.0165,0.0163,0.0163,0.0162,0.0162,0,0.0563,0.06,0.0674,0.0809,0.0909,0.1037,0.1163,0.1257,0.1363,0.1458,0.155,0.1539,0.1274,0.1009,0.0624,0.0429,0.0241,0.0175,0.0206,0.0214,0.0211,0.0186,0.019,0.0158,0.0159,0.0159,0.0159,0.0159,0.06,0.0661,0.0763,0.0892,0.1014,0.1172,0.1289,0.1426,0.1585,0.1727,0.1706,0.1681,0.1377,0.0892,0.0565,0.0214,0.023,0.0087,0.0091,0.0094,0.0121,0.0117,0.0049,0.0049,0.0048,0.0048,0.0048,0,0.0654,0.0731,0.0847,0.1004,0.1139,0.1204,0.1412,0.1535,0.1719,0.1817,0.1876,0.158,0.1285,0.093,0.0425,0.0117,0.0096,0.0001,0.0048,0.0055,0.006,0.0086,0.0003,0.0002,0.0001,0.0,0,0,0.069,0.0801,0.0861,0.1077,0.1198,0.1392,0.1517,0.1688,0.1801,0.1887,0.1867,0.1812,0.1393,0.1011,0.0598,0.0308,0.0248,0.0238,0.0307,0.0419,0.0427,0.014,0.0191,0,0,0,0,0]}],[{"header":{"parameterUnit":"m.s-1","parameterCategory":2,"la1":30.2991,"la2":30.254,"lo1":-89.0895,"lo2":-89.0444,"dy":0.0017,"dx":0.0017,"nx":28,"ny":28,"refTime":"2024-07-04T03:00:00:Z","depth":"4","parameterNumber":2,"parameterNumberName":"U-component_of_CURRENTS"},"data":[0,0,0,0,0,0,0,0,0,0,0,0,0,0,0,0,0,0,0,0,0,0,0,0,0,0,0,0,0,0,0,0,0,0,0,0,0,0,0,0,0,0,0,0,0,0,0,0,0,0,0,0,0,0,0,0,0,0,0.1826,0.1827,0,0.188,0.188,0.1881,0.1931,0.1932,0.1933,0.1934,0.1994,0.1994,0.1995,0,0,0,0,0,0,0,0,0,0,0,0,0,0.1746,0.1747,0.1826,0.1827,0.1828,0.188,0.188,0.1881,0.1931,0.1932,0.1933,0.1935,0.1993,0.1994,0.1995,0,0,0,0,0,0,0,0,0,0,0,0,0,0.1785,0.1747,0.1826,0.1862,0.1866,0.188,0.188,0.1881,0.1931,0.1932,0.1934,0.1935,0.1993,0.1994,0.1995,0.1974,0,0,0.1998,0.1999,0,0,0,0,0,0,0,0,0.1783,0.1788,0.1855,0.1859,0.1864,0.1903,0.1874,0.1914,0.1931,0.1903,0.1934,0.1936,0.1965,0.1968,0.1971,0.1977,0.1979,0.1999,0.1999,0.2,0.2,0,0,0,0,0,0,0,0.178,0.1786,0.1844,0.1856,0.1861,0.1868,0.1875,0.1882,0.1923,0.1905,0.191,0.1921,0.1967,0.197,0.1973,0.198,0.1999,0.1999,0.2,0.2001,0.2103,0.2105,0,0,0,0,0,0,0.178,0.1783,0.1842,0.1846,0.183,0.1869,0.1877,0.1886,0.1923,0.1931,0.1919,0.1923,0.1967,0.1971,0.1975,0.2065,0.2,0.2001,0.2001,0.2101,0.2103,0.2105,0,0,0,0,0,0,0.1778,0.1784,0.184,0.1818,0.1827,0.1869,0.188,0.1887,0.193,0.1934,0.1942,0.1961,0.1968,0.1973,0.202,0.2064,0.2001,0.2002,0.2098,0.2101,0.2104,0.2173,0,0,0,0,0,0,0.1775,0.1783,0.1807,0.1818,0.1828,0.1874,0.1879,0.1887,0.1934,0.194,0.1971,0.1976,0.197,0.2019,0.2021,0.2064,0.2003,0.2096,0.21,0.2103,0.2168,0.2178,0.2186,0,0,0,0,0,0.1772,0.1791,0.1807,0.1816,0.1853,0.1876,0.1882,0.1914,0.1935,0.1957,0.1986,0.1977,0.2045,0.2021,0.2023,0.2068,0.2094,0.2098,0.2103,0.2164,0.2176,0.2186,0,0,0,0,0,0,0.1769,0.1799,0.1817,0.1846,0.1873,0.1886,0.1917,0.1935,0.1973,0.1994,0.1995,0.2002,0.2066,0.2055,0.2028,0.211,0.2071,0.2076,0.2117,0.2128,0.2137,0.2145,0.2004,0,0,0,0,0,0.1779,0.1805,0.183,0.1859,0.1877,0.1904,0.1926,0.1949,0.1976,0.1997,0.202,0.2049,0.2078,0.2095,0.2118,0.2151,0.2153,0.2185,0.2194,0.2202,0.2212,0.226,0.2274,0.2121,0.212,0.212,0,0,0.1786,0.1808,0.1825,0.1861,0.1888,0.1917,0.1921,0.1967,0.2002,0.1995,0.2064,0.2088,0.2098,0.2147,0.2173,0.2147,0.2246,0.2208,0.2214,0.222,0.2266,0.2281,0.2294,0.2124,0.2123,0.2123,0,0,0.1801,0.1837,0.1862,0.1889,0.1939,0.1954,0.1977,0.2016,0.2052,0.2106,0.2122,0.2172,0.2209,0.2227,0.2237,0.2309,0.23,0.2325,0.2369,0.2415,0.2428,0.244,0.2452,0.2464,0.232,0.232,0.232,0,0.1816,0.1847,0.1873,0.1905,0.1937,0.1976,0.201,0.2044,0.2099,0.2132,0.2144,0.2232,0.2246,0.23,0.2334,0.2331,0.2347,0.2323,0.2427,0.2438,0.2449,0.2459,0.2472,0.2324,0.2324,0.2323,0.2323,0,0.1836,0.188,0.1901,0.1954,0.1987,0.2029,0.2073,0.2126,0.2176,0.2207,0.2294,0.232,0.2371,0.2388,0.2385,0.2469,0.2453,0.2439,0.2396,0.2468,0.2475,0.2486,0.233,0.2328,0.2327,0.2326,0,0,0.1822,0.19,0.1915,0.1946,0.2022,0.2042,0.2119,0.2182,0.2233,0.2303,0.2368,0.2437,0.2466,0.2481,0.2492,0.2532,0.262,0.2526,0.2527,0.2533,0.2712,0.2534,0.2529,0.2633,0.2636,0.2638,0.2683,0,0.184,0.1898,0.1939,0.2004,0.2036,0.2102,0.2158,0.2225,0.2291,0.2362,0.2419,0.2487,0.2495,0.2533,0.2582,0.2622,0.2656,0.2608,0.2646,0.2646,0.2476,0.2539,0.2646,0.2691,0.2694,0.2696,0.2697,0,0.1844,0.1884,0.195,0.2026,0.2048,0.2098,0.2196,0.2254,0.2359,0.2415,0.2501,0.2544,0.2637,0.2624,0.2731,0.2706,0.2723,0.2737,0.2738,0.2557,0.249,0.2607,0.2717,0.2716,0.2714,0.2713,0.2712,0,0.1802,0.189,0.1942,0.1971,0.2062,0.2117,0.2178,0.2281,0.2337,0.2463,0.2522,0.262,0.2697,0.2746,0.28,0.2781,0.2894,0.286,0.2706,0.2693,0.2808,0.2795,0.2924,0.2924,0.2923,0.2923,0.2923,0,0.1785,0.1828,0.1933,0.1958,0.2019,0.21,0.2183,0.2259,0.2376,0.2435,0.2555,0.2614,0.2742,0.2814,0.283,0.2807,0.2923,0.2724,0.27,0.2833,0.2824,0.2815,0.2802,0.2925,0.2925,0.2924,0.2924,0,0.1715,0.1796,0.1849,0.196,0.2001,0.2044,0.2178,0.2222,0.2362,0.2451,0.2499,0.2655,0.2747,0.2828,0.2914,0.2834,0.2827,0.2785,0.2924,0.2906,0.2582,0.2573,0.2602,0.2596,0.2591,0.2587,0.2584,0,0.1675,0.1703,0.1826,0.1861,0.1918,0.2006,0.2055,0.2199,0.2245,0.2443,0.2461,0.262,0.2699,0.2683,0.278,0.2781,0.275,0.2712,0.2641,0.2579,0.2554,0.2552,0.2548,0.2576,0.2575,0.2574,0.2572,0,0.1583,0.1649,0.1693,0.1767,0.1831,0.188,0.1971,0.1994,0.2151,0.2306,0.2368,0.2416,0.2515,0.2574,0.2605,0.2598,0.2716,0.266,0.2669,0.2603,0.2548,0.2527,0.253,0.2555,0.2558,0.2559,0.256,0,0.1512,0.152,0.1596,0.164,0.1711,0.1721,0.1792,0.1849,0.1922,0.214,0.2159,0.233,0.2492,0.2479,0.2502,0.2491,0.2441,0.2336,0.2361,0.2381,0.2287,0.2184,0.2066,0,0,0,0,0,0.1429,0.1428,0.1459,0.1495,0.1554,0.1598,0.1707,0.1783,0.1948,0.1932,0.204,0.2115,0.2174,0.2266,0.2208,0.2387,0.244,0.2305,0.233,0.2462,0.2481,0.239,0,0,0,0,0,0,0.1376,0.1405,0.1409,0.1354,0.1356,0.1399,0.1467,0.1583,0.1587,0.1777,0.183,0.1972,0.2071,0.2192,0.2167,0.2189,0.2154,0.2414,0.2407,0.2451,0.2469,0.2484,0.2398,0,0,0,0,0]},{"header":{"parameterUnit":"m.s-1","parameterCategory":2,"la1":30.2991,"la2":30.254,"lo1":-89.0895,"lo2":-89.0444,"dy":0.0017,"dx":0.0017,"nx":28,"ny":28,"refTime":"2024-07-04T03:00:00:Z","depth":"4","parameterNumber":3,"parameterNumberName":"V-component_of_CURRENTS"},"data":[0,0,0,0,0,0,0,0,0,0,0,0,0,0,0,0,0,0,0,0,0,0,0,0,0,0,0,0,0,0,0,0,0,0,0,0,0,0,0,0,0,0,0,0,0,0,0,0,0,0,0,0,0,0,0,0,0,0,0.0153,0.0153,0,0.0145,0.0145,0.0145,0.0135,0.0135,0.0135,0.0135,0.0129,0.0129,0.0129,0,0,0,0,0,0,0,0,0,0,0,0,0,0.0139,0.0139,0.0153,0.0153,0.0153,0.0145,0.0145,0.0145,0.0135,0.0135,0.0135,0.0135,0.0129,0.0129,0.0129,0,0,0,0,0,0,0,0,0,0,0,0,0,0.0139,0.0139,0.0153,0.0147,0.0147,0.0145,0.0145,0.0145,0.0135,0.0135,0.0135,0.0134,0.0129,0.0129,0.0129,0.0133,0,0,0.0129,0.0129,0,0,0,0,0,0,0,0,0.0139,0.014,0.0148,0.0148,0.0147,0.0141,0.0138,0.0141,0.0135,0.0139,0.0135,0.0134,0.0134,0.0133,0.0132,0.0133,0.0133,0.0129,0.0129,0.0129,0.0129,0,0,0,0,0,0,0,0.0139,0.014,0.015,0.0148,0.0147,0.0138,0.0138,0.0138,0.0138,0.0139,0.0138,0.0138,0.0133,0.0132,0.0132,0.0133,0.0129,0.0129,0.0129,0.0129,0.0137,0.0137,0,0,0,0,0,0,0.0142,0.014,0.015,0.015,0.0143,0.0138,0.0138,0.0143,0.0138,0.0137,0.0138,0.0137,0.0132,0.0132,0.0132,0.0148,0.0129,0.0129,0.0129,0.0136,0.0137,0.0137,0,0,0,0,0,0,0.0142,0.0143,0.015,0.0144,0.0145,0.0139,0.0144,0.0143,0.0145,0.0137,0.0136,0.0142,0.0132,0.0132,0.0139,0.0147,0.0129,0.0129,0.0136,0.0137,0.0137,0.0173,0,0,0,0,0,0,0.0142,0.0143,0.0149,0.0145,0.0145,0.0156,0.0144,0.0143,0.0145,0.0144,0.014,0.0139,0.0132,0.0139,0.0139,0.0147,0.0129,0.0136,0.0136,0.0137,0.0171,0.0174,0.0177,0,0,0,0,0,0.0141,0.0152,0.015,0.0151,0.0153,0.0156,0.0156,0.015,0.0146,0.0151,0.0148,0.0139,0.0141,0.014,0.0139,0.0147,0.0136,0.0136,0.0137,0.017,0.0174,0.0177,0,0,0,0,0,0,0.0145,0.0151,0.0149,0.016,0.016,0.0155,0.016,0.0155,0.0157,0.0158,0.0147,0.0146,0.0152,0.0146,0.0144,0.0149,0.0135,0.0135,0.016,0.0164,0.0166,0.0173,0.0129,0,0,0,0,0,0.015,0.0162,0.0161,0.017,0.0172,0.0167,0.0167,0.0165,0.0165,0.0165,0.0162,0.0157,0.0154,0.0156,0.0151,0.0161,0.0139,0.0163,0.0165,0.0168,0.0172,0.0147,0.0147,0.0138,0.0138,0.0138,0,0,0.0153,0.0159,0.0165,0.0172,0.0172,0.0182,0.0167,0.0174,0.0184,0.0165,0.018,0.0168,0.0157,0.0164,0.0166,0.0161,0.0157,0.0169,0.0171,0.0174,0.0147,0.0148,0.0149,0.0139,0.0139,0.0139,0,0,0.0169,0.0173,0.0188,0.0192,0.0198,0.0197,0.0201,0.0201,0.0203,0.0214,0.0199,0.0194,0.0195,0.0187,0.0182,0.0198,0.017,0.0194,0.0219,0.0194,0.0195,0.0195,0.0162,0.0159,0.0199,0.0199,0.0199,0,0.0173,0.0193,0.0191,0.0207,0.0217,0.0206,0.0225,0.0225,0.0228,0.0235,0.0225,0.0218,0.0206,0.0209,0.0211,0.0205,0.0183,0.0209,0.0198,0.0198,0.0197,0.0164,0.016,0.0201,0.0201,0.0201,0.02,0,0.0198,0.0216,0.0226,0.0245,0.0254,0.0269,0.0271,0.028,0.028,0.0278,0.0282,0.0261,0.026,0.0248,0.0236,0.0229,0.0211,0.0202,0.0191,0.02,0.0164,0.016,0.0203,0.0203,0.0202,0.0202,0,0,0.0208,0.0239,0.0244,0.0267,0.028,0.0294,0.0311,0.0327,0.0347,0.0333,0.0352,0.0328,0.0314,0.0307,0.0284,0.0258,0.023,0.0232,0.023,0.0202,0.0167,0.0151,0.0144,0.0218,0.0218,0.0217,0.0141,0,0.0231,0.0274,0.0282,0.0326,0.035,0.0353,0.0376,0.0387,0.039,0.0403,0.0372,0.0378,0.0338,0.0339,0.0306,0.0256,0.022,0.0251,0.016,0.0157,0.0144,0.014,0.0216,0.0137,0.0136,0.0135,0.0134,0,0.0255,0.0285,0.0333,0.0383,0.0395,0.0419,0.0461,0.0482,0.0487,0.049,0.0477,0.045,0.0418,0.038,0.029,0.0312,0.0242,0.019,0.0186,0.0157,0.0133,0.0126,0.0126,0.0127,0.0127,0.0128,0.0128,0,0.0275,0.0324,0.0369,0.0384,0.0432,0.0461,0.049,0.051,0.0548,0.0546,0.0565,0.0511,0.0503,0.0407,0.0298,0.0296,0.0186,0.0173,0.0086,0.0084,0.0105,0.0106,0.0096,0.0097,0.0097,0.0097,0.0097,0,0.0299,0.0338,0.0387,0.0414,0.0483,0.05,0.0574,0.0588,0.0624,0.0676,0.0617,0.0631,0.051,0.0433,0.0316,0.0189,0.0199,0.0087,0.0064,0.0121,0.0124,0.0101,0.0103,0.0094,0.0095,0.0095,0.0096,0,0.0312,0.0342,0.0403,0.0466,0.0496,0.0547,0.0644,0.0697,0.0715,0.0778,0.0783,0.073,0.0631,0.0487,0.0333,0.0231,0.0098,0.0043,0.011,0.0092,0.0004,0.0008,-0.0053,-0.0054,-0.0055,-0.0056,-0.0056,0,0.0321,0.0352,0.0443,0.0498,0.0533,0.0619,0.0688,0.0741,0.0798,0.084,0.0869,0.0795,0.0737,0.051,0.0346,0.0113,0.0075,-0.0004,-0.0002,0.0006,-0.0011,-0.0005,0.0001,-0.0058,-0.0058,-0.0058,-0.0059,0,0.0341,0.0374,0.043,0.0538,0.0623,0.0723,0.0818,0.0867,0.0933,0.0947,0.0947,0.0831,0.0717,0.0524,0.0338,0.0171,0.0045,-0.0015,-0.0014,-0.0012,-0.0002,-0.0015,-0.0009,-0.0062,-0.0062,-0.0061,-0.0061,0,0.0361,0.0404,0.0484,0.0582,0.0689,0.0798,0.0849,0.0922,0.0979,0.1011,0.1008,0.0879,0.0806,0.0554,0.0385,0.0215,0.017,0.0106,0.01,0.0101,0.0162,0.02,0.0182,0,0,0,0,0,0.0382,0.0441,0.0528,0.0643,0.0746,0.0814,0.0926,0.0969,0.1025,0.1035,0.1026,0.0915,0.0682,0.0579,0.0408,0.035,0.0128,0.0141,0.0048,-0.0081,-0.0077,-0.0034,0,0,0,0,0,0,0.0403,0.0483,0.0528,0.0672,0.0756,0.0882,0.0957,0.0999,0.1001,0.1023,0.0901,0.0854,0.0622,0.0778,0.0398,0.0348,0.0261,0.0034,0.003,-0.0083,-0.008,-0.0077,-0.0031,0,0,0,0,0]}]]